Location: Corcelles
(46.1547°N, 4.7234°E)
Time: 08:32:32
(UTC+00:00)

Cosmos 2082 Rocket - Pass Details

Date: 14 July 2020
Orbit: 834 x 853 km, 71.0° (Epoch: 14 August)

Event Time Altitude Azimuth Distance (km) Brightness Sun altitude
Exits shadow 02:22:47 19° 207° (SSW) 1,922 3.4 -13.6°
Maximum altitude 02:27:00 86° 296° (WNW) 861 2.2 -13.2°
Drops below altitude 10° 02:32:44 10° 26° (NNE) 2,488 6.0 -12.5°
Sets 02:35:12 0° 27° (NNE) 3,425 7.1 -12.3°
